DW8266 Weather Reports


Display with metric or nautical units.
time (UTC)temp
F
wind
direction
speed
MPH
gust
MPH
rain 1hr
in
rain 24hr
in
rain mn
in
humidity
%
barometer
mb
20260902010120 87 90 0.0 0.0 0.00 0.00 0.00 74 1012.7
20260902010002 87 90 0.0 1.0 0.00 0.00 0.00 75 1012.7
20260902004602 87 90 0.0 2.0 0.00 0.00 0.00 75 1012.9
20260902003101 88 100 0.0 1.0 0.00 0.00 0.00 76 1012.7
20260902001600 88 126 0.0 3.0 0.00 0.00 0.00 76 1012.6
20260902000100 88 107 0.0 5.0 0.00 0.00 0.00 75 1012.7
20260902000001 88 86 0.0 5.0 0.00 0.00 0.00 75 1012.7
20260901234559 89 101 1.0 5.0 0.00 0.00 0.00 72 1012.6
20260901233103 91 69 0.0 2.0 0.00 0.00 0.00 67 1012.6
20260901231600 91 69 0.0 3.0 0.00 0.00 0.00 66 1012.5
20260901230100 91 74 0.0 5.0 0.00 0.00 0.00 64 1012.6
20260901230004 91 74 0.0 5.0 0.00 0.00 0.00 64 1012.6
20260901224600 92 72 0.0 3.0 0.00 0.00 0.00 64 1012.6
20260901223058 92 74 0.0 3.0 0.00 0.00 0.00 63 1012.8
20260901221620 91 76 0.0 1.0 0.00 0.00 0.00 60 1012.9
20260901220057 92 76 0.0 3.0 0.00 0.00 0.00 61 1012.8
20260901220001 92 76 0.0 3.0 0.00 0.00 0.00 62 1012.8
20260901214559 92 65 0.0 3.0 0.00 0.00 0.00 62 1013.3
20260901213108 93 62 0.0 2.0 0.00 0.00 0.00 62 1013.3
20260901211558 94 25 0.0 3.0 0.00 0.00 0.00 61 1013.0
20260901210059 95 81 0.0 4.0 0.00 0.00 0.00 59 1013.0
20260901210001 95 77 1.0 4.0 0.00 0.00 0.00 60 1013.0
20260901204558 95 98 2.0 4.0 0.00 0.00 0.00 61 1012.9
20260901203105 95 286 0.0 4.0 0.00 0.00 0.00 61 1013.2
20260901201558 95 115 1.0 9.0 0.00 0.00 0.00 61 1013.5
20260901200107 94 70 0.0 3.0 0.00 0.00 0.00 63 1013.8
20260901194604 93 259 1.0 4.0 0.00 0.00 0.00 65 1014.0
20260901193114 93 87 0.0 3.0 0.00 0.00 0.00 67 1014.2
20260901191600 92 80 0.0 2.0 0.00 0.00 0.00 65 1014.3
20260901190119 92 225 0.0 4.0 0.00 0.00 0.00 68 1014.3
20260901184605 92 318 0.0 3.0 0.00 0.00 0.00 69 1014.6
20260901183100 92 88 1.0 3.0 0.00 0.00 0.00 70 1014.7
20260901181600 91 72 0.0 7.0 0.00 0.00 0.00 71 1014.7
20260901180100 91 302 2.0 5.0 0.00 0.00 0.00 73 1015.0
20260901174606 90 288 0.0 5.0 0.00 0.00 0.00 76 1015.4
20260901173102 89 338 0.0 3.0 0.00 0.00 0.00 77 1015.7
20260901171600 88 331 0.0 3.0 0.00 0.00 0.00 79 1015.9
20260901164559 87 288 0.0 4.0 0.00 0.00 0.00 82 1016.2
20260901163104 87 293 1.0 4.0 0.00 0.00 0.00 82 1016.2
20260901161614 86 300 1.0 5.0 0.00 0.00 0.00 82 1016.3
20260901160058 86 276 1.0 6.0 0.00 0.00 0.00 83 1016.2
20260901154606 86 125 0.0 4.0 0.00 0.00 0.00 84 1016.3
20260901153123 85 273 1.0 5.0 0.00 0.00 0.00 85 1016.1
20260901151559 85 305 1.0 5.0 0.00 0.00 0.00 87 1016.1
20260901150058 84 276 1.0 6.0 0.00 0.00 0.00 87 1016.2
20260901144600 83 277 0.0 4.0 0.00 0.00 0.00 88 1016.4
20260901143059 83 269 0.0 4.0 0.00 0.00 0.00 88 1016.2
20260901141600 83 266 0.0 3.0 0.00 0.00 0.00 88 1016.2
20260901140059 82 217 0.0 2.0 0.00 0.00 0.00 88 1016.4
20260901140002 82 217 0.0 2.0 0.00 0.00 0.00 88 1016.4
20260901134559 82 181 0.0 2.0 0.00 0.00 0.00 88 1016.5
20260901133058 82 327.0 255.0 0.00 0.00 0.00 90 1016.3
20260901131619 81 158 0.0 3.0 0.00 0.00 0.00 91 1016.0
20260901124601 80 165 0.0 0.0 0.00 0.00 0.00 91 1015.5
20260901123058 80 165 0.0 0.0 0.00 0.00 0.00 91 1015.4
20260901121600 80 165 0.0 0.0 0.00 0.00 0.00 91 1015.2
20260901120059 80 165 0.0 0.0 0.00 0.00 0.00 91 1015.0
20260901120002 80 165 0.0 0.0 0.00 0.00 0.00 91 1015.1
20260901114559 80 165 0.0 0.0 0.00 0.00 0.00 91 1014.8
20260901113107 80 165 0.0 0.0 0.00 0.00 0.00 91 1015.0
20260901111607 80 165 0.0 1.0 0.00 0.00 0.00 91 1014.9
20260901110111 81 165 0.0 0.0 0.00 0.00 0.00 91 1014.9
20260901104604 81 165 0.0 1.0 0.00 0.00 0.00 91 1014.9
20260901103059 81 165 0.0 0.0 0.00 0.00 0.00 90 1014.6
20260901101608 81 165 0.0 0.0 0.00 0.00 0.00 90 1014.7
20260901100109 81 165 0.0 0.0 0.00 0.00 0.00 90 1014.7
20260901100002 81 165 0.0 0.0 0.00 0.00 0.00 90 1014.7
20260901094603 81 165 0.0 0.0 0.00 0.00 0.00 90 1014.9
20260901093058 81 165 0.0 0.0 0.00 0.00 0.00 90 1014.7
20260901091558 81 165 0.0 0.0 0.00 0.00 0.00 90 1014.9
20260901090006 82 165 0.0 0.0 0.00 0.00 0.00 90 1014.9
20260901084610 82 165 0.0 0.0 0.00 0.00 0.00 89 1015.0
20260901083101 82 165 0.0 0.0 0.00 0.00 0.00 89 1015.0
20260901081610 82 165 0.0 1.0 0.00 0.00 0.00 89 1015.0
20260901080003 82 165 0.0 0.0 0.00 0.00 0.00 89 1015.1
20260901074559 82 165 0.0 0.0 0.00 0.00 0.00 89 1015.3
20260901073058 82 165 327.0 0.0 0.00 0.00 0.00 89 1015.3
20260901071556 82 165 0.0 3.0 0.00 0.00 0.00 89 1015.2
20260901070057 82 165 0.0 3.0 0.00 0.00 0.00 89 1015.3
20260901064558 83 165 1.0 2.0 0.00 0.00 0.00 89 1015.5
20260901063055 83 165 0.0 2.0 0.00 0.00 0.00 89 1015.4
20260901061603 83 165 0.0 0.0 0.00 0.00 0.00 88 1015.5
20260901060055 83 165 0.0 2.0 0.00 0.00 0.00 88 1015.5
20260901054555 84 165 0.0 1.0 0.00 0.00 0.00 88 1015.4
20260901053120 84 165 0.0 1.0 0.00 0.00 0.00 87 1015.4
20260901051603 84 165 0.0 1.0 0.00 0.00 0.00 87 1015.3
20260901050059 84 165 0.0 1.0 0.00 0.00 0.00 86 1015.1
20260901044600 85 165 0.0 1.0 0.00 0.00 0.00 86 1015.1
20260901043102 85 165 0.0 2.0 0.00 0.00 0.00 86 1014.9
20260901041605 85 165 0.0 2.0 0.00 0.00 0.00 85 1014.9
20260901040121 85 165 0.0 2.0 0.00 0.00 0.00 85 1015.0
20260901040001 85 165 0.0 2.0 0.00 0.00 0.00 85 1015.0
20260901034558 86 165 0.0 1.0 0.00 0.00 0.00 84 1014.8
20260901033110 86 165 0.0 1.0 0.00 0.00 0.00 84 1014.7
20260901031610 86 165 0.0 3.0 0.00 0.00 0.00 83 1014.6
20260901030003 86 165 0.0 1.0 0.00 0.00 0.00 82 1014.4
20260901024600 86 165 0.0 1.0 0.00 0.00 0.00 80 1014.4
20260901023058 87 165 0.0 1.0 0.00 0.00 0.00 80 1014.0
20260901021558 87 165 0.0 2.0 0.00 0.00 0.00 80 1013.9
20260901014559 87 173 0.0 3.0 0.00 0.00 0.00 77 1013.6
20260901013102 88 163 0.0 5.0 0.00 0.00 0.00 77 1013.6
20260901011556 88 153 0.0 5.0 0.00 0.00 0.00 77 1013.6